Terminal Aerodrome Forecast
Issued by NWS

Home | Current Version | Previous Version | Text Only | Print | Product List | Glossary On
Versions: 1 2 3 4 5 6 7 8 9 10 11 12 13 14 15 16 17 18 19 20 21 22 23 24 25 26 27 28 29 30 31 32
000
FTUS46 KMTR 250500
TAFSFO
TAF
KSFO 250520Z 2506/2612 29015KT P6SM SKC
     FM250700 28005KT P6SM FEW010
     FM251700 01005KT P6SM FEW010
     FM252200 30015KT P6SM SKC
     FM260400 30008KT P6SM FEW010=

USA.gov is the U.S. government's official web portal to all federal, state and local government web resources and services.